Airfield :
LOGIN :

Register | Disclaimer

   EN    FR    IT 

 










Legend :    VFR   Marginal VFR   IFR   Intensive IFR   Very Intensive IFR
Visi :
Ceiling :
>= 8 km
>= 3000ft
5 to 8 km
1000 to 3000 ft
1500m to 5 km
500 to 1000 ft
800 to 1500m
200 to 500 ft
< 800m
< 200 ft
Symbols :   Thunderstorms  Fog  Heavy snow  Heavy precipitations  Wind > 20 kt
SIGMETs :     Misc.  Thunderstorms  Icing  Turbulence  Mountain Waves  Volcanic Ashes







- Airport Elevation : 665 ft
- IATA code : NOC


EIKN - Connaught / Knock- Ireland West

METAR N/A
TAF TAF EIKN
Valid from the 16 at 00:00 until the 17 at 00:00 UTC


152300Z 1600/1624 23012KT 9999 BKN025
TEMPO 1603/1618 -SHRA BKN014
PROB30
TEMPO 1604/1614 7000 SHRA BKN009 SCT018CB
BECMG 1606/1609 27014KT
PROB30
TEMPO 1609/1615 28015G25KT
BECMG 1621/1624 24009KT
No reported NOTAMs for that airfield.



MET'MAP, your aeronautical weather chart ! - Copyright ORBIFLY December 2007 - Disclaimer

ORBIFLY MET'MAP TEAM :

Programming & Development : Alexandra Zaïnal
Concept & Development : Baudouin d'Aumeries
Co-Development & Prog : Marc-Olivier Méhu
Technical & hardware support : Manuel Goepfert

Contact : metmap@orbifly.com




SOURCES & CREDITS :

   NOAA